PDT,Max TemperatureF,Mean TemperatureF,Min TemperatureF,Max Dew PointF,MeanDew PointF,Min DewpointF,Max Humidity, Mean Humidity, Min Humidity, Max Sea Level PressureIn, Mean Sea Level PressureIn, Min Sea Level PressureIn, Max VisibilityMiles, Mean VisibilityMiles, Min VisibilityMiles, Max Wind SpeedMPH, Mean Wind SpeedMPH, Max Gust SpeedMPH,PrecipitationIn, CloudCover, Events, WindDirDegrees
2012-10-1,75,61,47,38,33,28,53,37,23,30.29,30.15,29.95,10,10,6,15,5,,0.00,0,,202
2012-10-2,69,55,41,47,28,14,99,43,20,30.19,30.01,29.89,10,10,5,28,13,37,0.00,0,,277
2012-10-3,57,44,32,30,25,17,73,50,30,30.45,30.35,30.22,10,10,10,12,7,17,0.00,0,,357
2012-10-4,56,45,34,28,21,14,75,42,22,30.35,30.33,30.30,10,10,8,16,10,20,0.00,0,,9
2012-10-5,57,42,28,24,18,15,70,40,21,30.43,30.37,30.34,10,8,2,13,5,,0.00,0,,17
2012-10-6,60,45,30,26,21,16,75,47,22,30.40,30.34,30.23,10,7,2,9,4,,0.00,0,,23
2012-10-7,67,50,32,26,23,16,68,42,19,30.23,30.14,29.99,10,10,10,9,3,,0.00,0,,210
2012-10-8,68,54,39,28,26,24,61,38,19,29.99,29.96,29.90,10,10,10,10,5,,0.00,0,,217
2012-10-9,65,50,36,36,30,26,70,52,30,30.10,30.04,29.98,10,8,2,10,3,,0.00,0,,92
2012-10-10,70,55,41,34,33,30,73,50,27,30.02,29.95,29.88,10,10,10,10,3,,0.00,0,,167
2012-10-11,68,53,38,42,38,33,100,62,31,30.00,29.92,29.81,10,10,10,10,4,,0.00,0,,44
2012-10-12,64,50,37,50,38,34,100,67,36,29.94,29.83,29.78,10,10,8,16,4,,0.00,2,,181
2012-10-13,57,52,48,56,51,48,100,100,90,30.18,30.08,29.94,10,10,9,17,12,24,0.03,7,Rain,201
2012-10-14,64,57,50,57,52,45,100,93,49,30.17,30.04,29.91,10,10,10,20,11,28,0.04,7,Rain,187
2012-10-15,63,56,51,60,54,50,100,98,63,29.94,29.81,29.57,10,10,2,21,14,31,0.42,8,Rain,188
2012-10-16,58,49,38,59,45,27,100,82,32,30.08,29.72,29.45,10,10,10,34,23,46,0.04,3,,229
2012-10-17,52,41,30,39,34,27,100,87,38,30.32,30.24,30.10,10,10,10,13,7,,0.00,2,,183
2012-10-18,61,48,34,39,33,26,100,68,27,30.29,30.16,29.86,10,10,5,12,4,,0.00,1,,103
2012-10-19,60,53,46,55,48,34,100,86,50,29.87,29.73,29.61,10,9,4,24,12,34,0.04,6,Rain,195
2012-10-20,50,40,33,47,35,22,100,81,36,29.86,29.75,29.64,10,10,10,24,15,34,0.00,1,,220
2012-10-21,47,38,29,39,34,29,100,86,53,29.94,29.91,29.87,10,10,10,14,9,,0.00,5,Rain,172
2012-10-22,43,36,29,41,35,29,100,96,66,29.87,29.64,29.55,10,10,9,18,10,23,0.15,7,Rain,77
2012-10-23,43,36,30,40,36,30,100,98,81,29.99,29.83,29.69,10,10,10,17,10,23,0.00,5,Rain,184
2012-10-24,42,34,26,36,31,27,100,97,65,30.36,30.04,29.98,10,4,0,13,5,,0.03,3,Fog-Rain-Snow,45
2012-10-25,41,37,32,41,36,32,100,96,75,30.45,30.34,30.22,10,9,1,10,5,,0.02,7,,224
2012-10-26,36,32,29,36,33,29,100,100,99,30.42,30.27,30.12,10,7,0,12,4,,0.06,6,Fog-Rain-Snow,116
2012-10-27,41,38,35,42,40,36,100,100,100,30.12,30.03,29.88,10,9,3,13,6,,0.06,8,Rain,179
2012-10-28,50,46,41,51,45,41,100,100,99,29.94,29.89,29.85,10,5,0,20,7,26,0.07,7,Fog-Rain,189
2012-10-29,62,53,44,59,50,45,100,99,71,30.03,29.87,29.81,10,9,3,26,9,39,0.24,6,Rain,191
2012-10-30,55,50,44,55,50,45,100,100,94,30.03,29.95,29.90,10,10,9,13,7,,0.16,7,Rain,163
2012-10-31,57,52,48,57,50,48,100,100,99,29.91,29.83,29.72,10,6,0,13,6,,0.02,5,Fog-Rain,48